EJA1250 KORF-KMCI

Flight info

Callsign EJA1250
Flight time 2h 22m
Altitude 30000
Route NUTIY1 KELLE MOL J24 HVQ BA USIRE SPI EUING RUDDH3
Aircraft B737/M-SDE2E3FGHIRWXY/LB1

Departure

Time 2026-04-21 20:40
Airport Norfolk International Airport (KORF)

Arrival

Time 2026-04-21 23:02
Airport Kansas City International Airport (KMCI)
Time Latitude Longitude Altitude Speed Heading
2026-04-21 20:21 36.89877 -76.20126 2 ft 0 kts 12°
2026-04-21 20:24 36.89874 -76.20221 2 ft 0 kts 12°
2026-04-21 20:28 36.89875 -76.20221 2 ft 0 kts 12°
2026-04-21 20:30 36.89866 -76.20223 2 ft 3 kts 16°
2026-04-21 20:30 36.89848 -76.20232 2 ft 3 kts 37°
2026-04-21 20:31 36.89835 -76.20248 2 ft 3 kts 71°
2026-04-21 20:31 36.89833 -76.20267 2 ft 2 kts 111°
2026-04-21 20:31 36.89834 -76.20271 2 ft 1 kts 114°
2026-04-21 20:33 36.89832 -76.20267 2 ft 5 kts 114°
2026-04-21 20:34 36.89809 -76.20201 2 ft 10 kts 114°
2026-04-21 20:34 36.89775 -76.20101 2 ft 14 kts 113°
2026-04-21 20:34 36.89733 -76.19991 2 ft 14 kts 136°
2026-04-21 20:34 36.89650 -76.20020 3 ft 13 kts 218°
2026-04-21 20:35 36.89578 -76.20090 3 ft 13 kts 218°
2026-04-21 20:35 36.89509 -76.20158 4 ft 13 kts 218°
2026-04-21 20:35 36.89440 -76.20223 3 ft 12 kts 217°
2026-04-21 20:35 36.89374 -76.20287 3 ft 12 kts 217°
2026-04-21 20:36 36.89309 -76.20349 4 ft 12 kts 217°
2026-04-21 20:36 36.89246 -76.20410 5 ft 11 kts 217°
2026-04-21 20:36 36.89182 -76.20465 5 ft 11 kts 213°
2026-04-21 20:36 36.89116 -76.20517 3 ft 11 kts 212°
2026-04-21 20:37 36.89051 -76.20568 3 ft 11 kts 211°
2026-04-21 20:37 36.88987 -76.20616 3 ft 11 kts 211°
2026-04-21 20:37 36.88928 -76.20667 2 ft 10 kts 221°
2026-04-21 20:37 36.88873 -76.20723 2 ft 10 kts 218°
2026-04-21 20:38 36.88820 -76.20776 3 ft 10 kts 218°
2026-04-21 20:38 36.88767 -76.20828 2 ft 9 kts 218°
2026-04-21 20:38 36.88715 -76.20877 2 ft 9 kts 217°
2026-04-21 20:38 36.88656 -76.20894 2 ft 9 kts 167°
2026-04-21 20:39 36.88620 -76.20838 1 ft 9 kts 98°
2026-04-21 20:39 36.88652 -76.20767 1 ft 17 kts 38°
2026-04-21 20:39 36.88988 -76.20442 5 ft 110 kts 37°
2026-04-21 20:39 36.89811 -76.19649 220 ft 178 kts 38°
2026-04-21 20:40 36.90912 -76.18553 845 ft 224 kts 40°
2026-04-21 20:40 36.92247 -76.17262 1580 ft 258 kts 26°
2026-04-21 20:40 36.93980 -76.17020 2595 ft 254 kts 342°
2026-04-21 20:40 36.95402 -76.18262 3293 ft 254 kts 302°
2026-04-21 20:41 36.95993 -76.20288 3889 ft 249 kts 276°
2026-04-21 20:41 36.96001 -76.22417 4446 ft 243 kts 267°
2026-04-21 20:41 36.95886 -76.24547 5160 ft 248 kts 268°
2026-04-21 20:41 36.95752 -76.26724 5815 ft 256 kts 268°
2026-04-21 20:42 36.95605 -76.28971 6301 ft 261 kts 269°
2026-04-21 20:42 36.95465 -76.31253 6724 ft 266 kts 270°
2026-04-21 20:42 36.95314 -76.33628 6356 ft 287 kts 268°
2026-04-21 20:42 36.95073 -76.36250 5490 ft 306 kts 264°
2026-04-21 20:43 36.94811 -76.38854 4835 ft 301 kts 268°
2026-04-21 20:43 36.94928 -76.41583 3527 ft 323 kts 277°
2026-04-21 20:43 36.95291 -76.44286 3530 ft 299 kts 279°
2026-04-21 20:43 36.95672 -76.46638 4223 ft 254 kts 281°
2026-04-21 20:44 36.96009 -76.48628 4891 ft 218 kts 282°
2026-04-21 20:44 36.96320 -76.50447 5640 ft 218 kts 284°
2026-04-21 20:44 36.96651 -76.52368 6414 ft 233 kts 284°
2026-04-21 20:44 36.97003 -76.54411 7167 ft 247 kts 285°
2026-04-21 20:45 36.97375 -76.56567 7912 ft 260 kts 285°
2026-04-21 20:45 36.97757 -76.58793 8637 ft 262 kts 286°
2026-04-21 20:45 36.98131 -76.60981 9373 ft 261 kts 286°
2026-04-21 20:45 36.98516 -76.63234 10149 ft 262 kts 287°
2026-04-21 20:46 36.98892 -76.65434 10838 ft 263 kts 287°
2026-04-21 20:46 36.99277 -76.67683 11548 ft 265 kts 287°
2026-04-21 20:46 36.99664 -76.69948 12274 ft 268 kts 287°
2026-04-21 20:46 37.00055 -76.72237 13022 ft 270 kts 287°
2026-04-21 20:47 37.00449 -76.74546 13784 ft 273 kts 287°
2026-04-21 20:47 37.00846 -76.76875 14516 ft 275 kts 287°
2026-04-21 20:47 37.01250 -76.79242 15229 ft 281 kts 287°
2026-04-21 20:47 37.01661 -76.81656 15957 ft 287 kts 287°
2026-04-21 20:48 37.02078 -76.84106 16697 ft 289 kts 287°
2026-04-21 20:48 37.02495 -76.86570 17437 ft 290 kts 287°
2026-04-21 20:48 37.02913 -76.89047 18178 ft 291 kts 287°
2026-04-21 20:48 37.03329 -76.91517 18913 ft 291 kts 287°
2026-04-21 20:49 37.03749 -76.94005 19607 ft 293 kts 287°
2026-04-21 20:49 37.04173 -76.96518 20318 ft 296 kts 287°
2026-04-21 20:49 37.04600 -76.99052 21041 ft 299 kts 286°
2026-04-21 20:49 37.05030 -77.01609 21781 ft 301 kts 286°
2026-04-21 20:50 37.05464 -77.04192 22441 ft 308 kts 286°
2026-04-21 20:50 37.05921 -77.06892 22678 ft 325 kts 286°
2026-04-21 20:50 37.06399 -77.09728 22971 ft 341 kts 286°
2026-04-21 20:50 37.06896 -77.12690 23261 ft 355 kts 285°
2026-04-21 20:51 37.07411 -77.15769 23554 ft 368 kts 285°
2026-04-21 20:51 37.07941 -77.18951 23848 ft 379 kts 285°
2026-04-21 20:51 37.08486 -77.22233 24102 ft 390 kts 285°
2026-04-21 20:51 37.09043 -77.25600 24312 ft 400 kts 285°
2026-04-21 20:52 37.09614 -77.29051 24546 ft 408 kts 285°
2026-04-21 20:52 37.10194 -77.32570 24782 ft 416 kts 285°
2026-04-21 20:52 37.10783 -77.36148 25020 ft 423 kts 285°
2026-04-21 20:52 37.11381 -77.39782 25254 ft 429 kts 285°
2026-04-21 20:53 37.11986 -77.43468 25490 ft 434 kts 284°
2026-04-21 20:53 37.12595 -77.47185 25733 ft 437 kts 284°
2026-04-21 20:53 37.13206 -77.50925 25975 ft 438 kts 284°
2026-04-21 20:53 37.13817 -77.54669 26217 ft 439 kts 284°
2026-04-21 20:54 37.14427 -77.58421 26462 ft 439 kts 284°
2026-04-21 20:54 37.15033 -77.62152 26693 ft 435 kts 284°
2026-04-21 20:54 37.15624 -77.65798 26933 ft 429 kts 284°
2026-04-21 20:54 37.16217 -77.69451 27183 ft 427 kts 285°
2026-04-21 20:55 37.16808 -77.73101 27449 ft 427 kts 284°
2026-04-21 20:55 37.17435 -77.76736 27699 ft 426 kts 288°
2026-04-21 20:55 37.18418 -77.80226 27971 ft 423 kts 295°
2026-04-21 20:55 37.19710 -77.83532 28208 ft 421 kts 302°
2026-04-21 20:56 37.21328 -77.86575 28480 ft 420 kts 306°
2026-04-21 20:56 37.23023 -77.89555 28747 ft 419 kts 307°
2026-04-21 20:56 37.24722 -77.92526 29018 ft 418 kts 307°
2026-04-21 20:56 37.26413 -77.95491 29289 ft 417 kts 306°
2026-04-21 20:57 37.28093 -77.98453 29554 ft 416 kts 306°
2026-04-21 20:57 37.29763 -78.01408 29832 ft 414 kts 306°
2026-04-21 20:57 37.31424 -78.04362 30099 ft 413 kts 306°
2026-04-21 20:57 37.33074 -78.07303 30318 ft 412 kts 306°
2026-04-21 20:58 37.36371 -78.13191 30306 ft 411 kts 306°
2026-04-21 20:58 37.39651 -78.19063 30297 ft 410 kts 306°
2026-04-21 20:59 37.42927 -78.24937 30291 ft 409 kts 306°
2026-04-21 20:59 37.46166 -78.30757 30292 ft 409 kts 306°
2026-04-21 21:00 37.49424 -78.36619 30292 ft 408 kts 306°
2026-04-21 21:00 37.52677 -78.42481 30291 ft 408 kts 306°
2026-04-21 21:01 37.55930 -78.48355 30289 ft 409 kts 306°
2026-04-21 21:01 37.59186 -78.54245 30289 ft 409 kts 306°
2026-04-21 21:02 37.62439 -78.60140 30294 ft 410 kts 306°
2026-04-21 21:02 37.65694 -78.66048 30304 ft 410 kts 305°
2026-04-21 21:03 37.68945 -78.71962 30294 ft 410 kts 305°
2026-04-21 21:03 37.72190 -78.77874 30289 ft 409 kts 305°
2026-04-21 21:04 37.75420 -78.83768 30270 ft 407 kts 305°
2026-04-21 21:04 37.78639 -78.89648 30278 ft 406 kts 305°
2026-04-21 21:05 37.81844 -78.95525 30280 ft 406 kts 305°
2026-04-21 21:05 37.85054 -79.01415 30285 ft 407 kts 305°
2026-04-21 21:06 37.88232 -79.07272 30176 ft 407 kts 303°
2026-04-21 21:06 37.90646 -79.13758 30131 ft 410 kts 290°
2026-04-21 21:07 37.91966 -79.20838 30037 ft 414 kts 285°
2026-04-21 21:07 37.93199 -79.27976 29965 ft 415 kts 285°
2026-04-21 21:08 37.94454 -79.35125 29889 ft 417 kts 285°
2026-04-21 21:08 37.95507 -79.41082 29852 ft 417 kts 285°
2026-04-21 21:09 37.96773 -79.48254 29839 ft 417 kts 285°
2026-04-21 21:09 37.97404 -79.51846 30264 ft 418 kts 285°
2026-04-21 21:09 37.98036 -79.55442 30251 ft 418 kts 285°
2026-04-21 21:10 37.99297 -79.62644 30264 ft 419 kts 285°
2026-04-21 21:10 38.00573 -79.69868 30262 ft 420 kts 285°
2026-04-21 21:11 38.01850 -79.77091 30255 ft 420 kts 285°
2026-04-21 21:11 38.03123 -79.84323 30253 ft 420 kts 285°
2026-04-21 21:12 38.04388 -79.91546 30238 ft 419 kts 285°
2026-04-21 21:12 38.05644 -79.98744 30252 ft 417 kts 285°
2026-04-21 21:13 38.06893 -80.05931 30248 ft 417 kts 285°
2026-04-21 21:13 38.08136 -80.13114 30243 ft 416 kts 285°
2026-04-21 21:14 38.09373 -80.20285 30241 ft 416 kts 284°
2026-04-21 21:14 38.10596 -80.27404 30233 ft 415 kts 284°
2026-04-21 21:15 38.11821 -80.34558 30243 ft 414 kts 284°
2026-04-21 21:15 38.13031 -80.41711 30241 ft 414 kts 284°
2026-04-21 21:16 38.14227 -80.48871 30232 ft 415 kts 284°
2026-04-21 21:16 38.15420 -80.56034 30230 ft 414 kts 284°
2026-04-21 21:17 38.16609 -80.63193 30224 ft 414 kts 284°
2026-04-21 21:17 38.17794 -80.70352 30219 ft 414 kts 284°
2026-04-21 21:18 38.18972 -80.77501 30206 ft 414 kts 284°
2026-04-21 21:18 38.20152 -80.84656 30211 ft 413 kts 284°
2026-04-21 21:19 38.21332 -80.91802 30189 ft 413 kts 284°
2026-04-21 21:19 38.22509 -80.98959 30200 ft 413 kts 284°
2026-04-21 21:20 38.23679 -81.06107 30192 ft 413 kts 283°
2026-04-21 21:20 38.24844 -81.13257 30187 ft 413 kts 283°
2026-04-21 21:21 38.26006 -81.20413 30193 ft 413 kts 283°
2026-04-21 21:21 38.27165 -81.27577 30187 ft 413 kts 283°
2026-04-21 21:22 38.28318 -81.34745 30185 ft 413 kts 283°
2026-04-21 21:22 38.29462 -81.41912 30181 ft 413 kts 283°
2026-04-21 21:23 38.30604 -81.49092 30184 ft 414 kts 283°
2026-04-21 21:23 38.31742 -81.56275 30149 ft 414 kts 283°
2026-04-21 21:24 38.32876 -81.63459 30149 ft 414 kts 283°
2026-04-21 21:24 38.34000 -81.70603 30161 ft 414 kts 283°
2026-04-21 21:25 38.35167 -81.77788 30147 ft 414 kts 286°
2026-04-21 21:25 38.36912 -81.84762 30161 ft 413 kts 289°
2026-04-21 21:26 38.38769 -81.91692 30166 ft 413 kts 289°
2026-04-21 21:26 38.40607 -81.98645 30162 ft 414 kts 289°
2026-04-21 21:27 38.42418 -82.05611 30161 ft 414 kts 289°
2026-04-21 21:27 38.44215 -82.12584 30163 ft 414 kts 289°
2026-04-21 21:28 38.46008 -82.19568 30159 ft 414 kts 289°
2026-04-21 21:29 38.48686 -82.30041 30163 ft 414 kts 289°
2026-04-21 21:29 38.50467 -82.37027 30163 ft 414 kts 289°
2026-04-21 21:30 38.52244 -82.44019 30152 ft 414 kts 288°
2026-04-21 21:30 38.54016 -82.51010 30145 ft 414 kts 288°
2026-04-21 21:31 38.55788 -82.58019 30135 ft 415 kts 288°
2026-04-21 21:31 38.57555 -82.65032 30146 ft 415 kts 288°
2026-04-21 21:32 38.59319 -82.72052 30141 ft 415 kts 288°
2026-04-21 21:32 38.61080 -82.79079 30120 ft 415 kts 288°
2026-04-21 21:33 38.62837 -82.86112 30147 ft 416 kts 288°
2026-04-21 21:33 38.64594 -82.93161 30152 ft 416 kts 288°
2026-04-21 21:34 38.66348 -83.00222 30141 ft 417 kts 288°
2026-04-21 21:34 38.68100 -83.07297 30145 ft 417 kts 288°
2026-04-21 21:35 38.69837 -83.14330 30152 ft 417 kts 288°
2026-04-21 21:35 38.71591 -83.21450 30143 ft 417 kts 288°
2026-04-21 21:36 38.73329 -83.28529 30168 ft 416 kts 288°
2026-04-21 21:36 38.75061 -83.35604 30148 ft 416 kts 287°
2026-04-21 21:37 38.76778 -83.42642 30146 ft 417 kts 287°
2026-04-21 21:37 38.78504 -83.49732 30152 ft 416 kts 287°
2026-04-21 21:38 38.80224 -83.56820 30145 ft 417 kts 287°
2026-04-21 21:38 38.81939 -83.63912 30149 ft 417 kts 287°
2026-04-21 21:39 38.83655 -83.71026 30137 ft 417 kts 287°
2026-04-21 21:39 38.85367 -83.78142 30134 ft 418 kts 287°
2026-04-21 21:40 38.87076 -83.85270 30146 ft 418 kts 287°
2026-04-21 21:40 38.88781 -83.92404 30135 ft 418 kts 287°
2026-04-21 21:41 38.90483 -83.99547 30139 ft 419 kts 287°
2026-04-21 21:41 38.92182 -84.06698 30136 ft 419 kts 287°
2026-04-21 21:42 38.93880 -84.13865 30145 ft 420 kts 287°
2026-04-21 21:42 38.95575 -84.21046 30137 ft 420 kts 287°
2026-04-21 21:43 38.97266 -84.28229 30126 ft 420 kts 287°
2026-04-21 21:43 38.98955 -84.35423 30142 ft 420 kts 287°
2026-04-21 21:44 39.00640 -84.42625 30094 ft 421 kts 287°
2026-04-21 21:44 39.02320 -84.49831 30109 ft 421 kts 287°
2026-04-21 21:45 39.03997 -84.57043 30112 ft 421 kts 287°
2026-04-21 21:45 39.05670 -84.64260 30110 ft 421 kts 286°
2026-04-21 21:46 39.07335 -84.71466 30108 ft 420 kts 286°
2026-04-21 21:46 39.08997 -84.78682 30112 ft 420 kts 286°
2026-04-21 21:47 39.10655 -84.85903 30116 ft 421 kts 286°
2026-04-21 21:47 39.12310 -84.93133 30112 ft 421 kts 286°
2026-04-21 21:48 39.13948 -85.00315 30104 ft 421 kts 286°
2026-04-21 21:48 39.15604 -85.07593 30067 ft 421 kts 286°
2026-04-21 21:49 39.17245 -85.14833 30072 ft 421 kts 286°
2026-04-21 21:49 39.18882 -85.22079 30071 ft 421 kts 286°
2026-04-21 21:50 39.20516 -85.29333 30066 ft 422 kts 286°
2026-04-21 21:50 39.22146 -85.36592 30093 ft 422 kts 286°
2026-04-21 21:51 39.23774 -85.43863 30089 ft 422 kts 286°
2026-04-21 21:51 39.25396 -85.51138 30095 ft 422 kts 285°
2026-04-21 21:52 39.27017 -85.58427 30098 ft 423 kts 286°
2026-04-21 21:52 39.28634 -85.65724 30090 ft 423 kts 285°
2026-04-21 21:53 39.29976 -85.71798 30092 ft 423 kts 285°
2026-04-21 21:53 39.31847 -85.80288 30087 ft 423 kts 285°
2026-04-21 21:54 39.33168 -85.87694 30082 ft 423 kts 281°
2026-04-21 21:54 39.34086 -85.93944 30069 ft 423 kts 281°
2026-04-21 21:55 39.35169 -86.01418 30067 ft 423 kts 281°
2026-04-21 21:55 39.36260 -86.08830 30067 ft 423 kts 281°
2026-04-21 21:56 39.37367 -86.16289 30070 ft 423 kts 281°
2026-04-21 21:56 39.38474 -86.23756 30059 ft 423 kts 281°
2026-04-21 21:57 39.39578 -86.31230 30070 ft 423 kts 281°
2026-04-21 21:57 39.40678 -86.38709 30072 ft 424 kts 281°
2026-04-21 21:58 39.41781 -86.46247 30063 ft 424 kts 281°
2026-04-21 21:58 39.42864 -86.53685 30072 ft 424 kts 281°
2026-04-21 21:59 39.43951 -86.61188 30053 ft 425 kts 281°
2026-04-21 21:59 39.45034 -86.68699 30064 ft 425 kts 281°
2026-04-21 22:00 39.46115 -86.76230 30057 ft 426 kts 281°
2026-04-21 22:00 39.47192 -86.83768 30066 ft 426 kts 281°
2026-04-21 22:01 39.48265 -86.91316 30065 ft 426 kts 281°
2026-04-21 22:01 39.49334 -86.98875 30053 ft 427 kts 281°
2026-04-21 22:02 39.50399 -87.06437 30061 ft 428 kts 281°
2026-04-21 22:02 39.51462 -87.14024 30065 ft 428 kts 281°
2026-04-21 22:03 39.52521 -87.21621 30050 ft 429 kts 281°
2026-04-21 22:03 39.53575 -87.29223 30045 ft 429 kts 281°
2026-04-21 22:04 39.54624 -87.36828 30039 ft 429 kts 281°
2026-04-21 22:04 39.55670 -87.44446 30055 ft 430 kts 281°
2026-04-21 22:05 39.56706 -87.52022 30038 ft 430 kts 281°
2026-04-21 22:05 39.57744 -87.59658 30031 ft 430 kts 281°
2026-04-21 22:06 39.58778 -87.67305 30029 ft 430 kts 281°
2026-04-21 22:06 39.59805 -87.74945 30026 ft 430 kts 281°
2026-04-21 22:07 39.60829 -87.82594 30036 ft 431 kts 281°
2026-04-21 22:07 39.61849 -87.90251 30042 ft 431 kts 281°
2026-04-21 22:08 39.62863 -87.97908 30041 ft 431 kts 281°
2026-04-21 22:08 39.63873 -88.05578 30045 ft 431 kts 281°
2026-04-21 22:09 39.64879 -88.13252 30040 ft 432 kts 281°
2026-04-21 22:09 39.65880 -88.20928 30043 ft 432 kts 281°
2026-04-21 22:10 39.66878 -88.28624 30043 ft 432 kts 281°
2026-04-21 22:10 39.67870 -88.36318 30044 ft 433 kts 281°
2026-04-21 22:11 39.68858 -88.44023 30044 ft 433 kts 281°
2026-04-21 22:11 39.69842 -88.51737 30036 ft 433 kts 281°
2026-04-21 22:12 39.70822 -88.59456 30021 ft 434 kts 281°
2026-04-21 22:12 39.71797 -88.67185 30017 ft 434 kts 281°
2026-04-21 22:13 39.72769 -88.74930 30006 ft 434 kts 281°
2026-04-21 22:13 39.73735 -88.82675 30002 ft 435 kts 281°
2026-04-21 22:14 39.74698 -88.90434 29994 ft 435 kts 281°
2026-04-21 22:14 39.75656 -88.98202 29998 ft 435 kts 281°
2026-04-21 22:15 39.76610 -89.05977 30004 ft 436 kts 281°
2026-04-21 22:15 39.77560 -89.13764 30013 ft 437 kts 281°
2026-04-21 22:16 39.78506 -89.21569 30022 ft 437 kts 281°
2026-04-21 22:16 39.79447 -89.29374 30011 ft 437 kts 281°
2026-04-21 22:17 39.80383 -89.37184 30009 ft 437 kts 281°
2026-04-21 22:17 39.81309 -89.44955 30001 ft 438 kts 281°
2026-04-21 22:18 39.82236 -89.52778 29990 ft 437 kts 281°
2026-04-21 22:18 39.83157 -89.60593 29993 ft 437 kts 281°
2026-04-21 22:19 39.84071 -89.68411 29992 ft 437 kts 280°
2026-04-21 22:19 39.84245 -89.76335 29993 ft 440 kts 271°
2026-04-21 22:20 39.83962 -89.84297 29992 ft 440 kts 270°
2026-04-21 22:20 39.83686 -89.92243 29992 ft 440 kts 270°
2026-04-21 22:21 39.83459 -90.00195 29998 ft 440 kts 271°
2026-04-21 22:21 39.83254 -90.08132 30000 ft 439 kts 271°
2026-04-21 22:22 39.83050 -90.16077 30004 ft 439 kts 271°
2026-04-21 22:22 39.82840 -90.24026 29994 ft 440 kts 271°
2026-04-21 22:23 39.82623 -90.31970 29993 ft 440 kts 271°
2026-04-21 22:23 39.82400 -90.39916 29986 ft 440 kts 270°
2026-04-21 22:24 39.82172 -90.47858 30004 ft 439 kts 270°
2026-04-21 22:24 39.81938 -90.55809 30001 ft 440 kts 270°
2026-04-21 22:25 39.81699 -90.63752 30001 ft 440 kts 270°
2026-04-21 22:25 39.81454 -90.71704 30013 ft 440 kts 270°
2026-04-21 22:26 39.81204 -90.79648 29997 ft 440 kts 270°
2026-04-21 22:26 39.80949 -90.87595 30006 ft 439 kts 270°
2026-04-21 22:27 39.80688 -90.95536 29960 ft 440 kts 270°
2026-04-21 22:27 39.80422 -91.03474 29958 ft 440 kts 270°
2026-04-21 22:28 39.80150 -91.11420 29960 ft 440 kts 270°
2026-04-21 22:28 39.79873 -91.19368 29971 ft 440 kts 270°
2026-04-21 22:29 39.79593 -91.27257 30016 ft 440 kts 270°
2026-04-21 22:29 39.79304 -91.35217 30024 ft 441 kts 270°
2026-04-21 22:30 39.79010 -91.43192 30013 ft 442 kts 270°
2026-04-21 22:30 39.78709 -91.51169 30013 ft 442 kts 270°
2026-04-21 22:31 39.78404 -91.59148 30013 ft 442 kts 270°
2026-04-21 22:31 39.78093 -91.67119 30013 ft 441 kts 270°
2026-04-21 22:32 39.77776 -91.75095 30007 ft 441 kts 270°
2026-04-21 22:32 39.77455 -91.83059 30003 ft 441 kts 270°
2026-04-21 22:33 39.77128 -91.91017 29982 ft 441 kts 270°
2026-04-21 22:33 39.76962 -91.95017 29761 ft 444 kts 269°
2026-04-21 22:33 39.76794 -91.99019 29394 ft 444 kts 269°
2026-04-21 22:33 39.76625 -92.03029 28971 ft 444 kts 269°
2026-04-21 22:34 39.76454 -92.07033 28547 ft 445 kts 269°
2026-04-21 22:34 39.76282 -92.11051 28122 ft 445 kts 269°
2026-04-21 22:34 39.76108 -92.15066 27711 ft 446 kts 269°
2026-04-21 22:34 39.75932 -92.19099 27298 ft 446 kts 269°
2026-04-21 22:35 39.75755 -92.23123 26891 ft 447 kts 269°
2026-04-21 22:35 39.75575 -92.27161 26491 ft 448 kts 269°
2026-04-21 22:35 39.75395 -92.31211 26092 ft 449 kts 269°
2026-04-21 22:35 39.75212 -92.35263 25704 ft 451 kts 269°
2026-04-21 22:36 39.74841 -92.43410 24942 ft 452 kts 269°
2026-04-21 22:36 39.74653 -92.47477 24570 ft 450 kts 269°
2026-04-21 22:36 39.74465 -92.51500 24190 ft 439 kts 269°
2026-04-21 22:37 39.74281 -92.55402 23841 ft 425 kts 269°
2026-04-21 22:37 39.74103 -92.59161 23502 ft 411 kts 269°
2026-04-21 22:37 39.73930 -92.62822 23118 ft 402 kts 269°
2026-04-21 22:37 39.73760 -92.66428 22745 ft 399 kts 269°
2026-04-21 22:38 39.73588 -92.70025 22371 ft 399 kts 269°
2026-04-21 22:38 39.73353 -92.73607 22009 ft 398 kts 267°
2026-04-21 22:38 39.73052 -92.77177 21644 ft 397 kts 266°
2026-04-21 22:38 39.72728 -92.80738 21290 ft 396 kts 266°
2026-04-21 22:39 39.72403 -92.84276 20946 ft 394 kts 266°
2026-04-21 22:39 39.72083 -92.87807 20605 ft 392 kts 266°
2026-04-21 22:39 39.71770 -92.91316 20251 ft 390 kts 266°
2026-04-21 22:39 39.71567 -92.93622 20025 ft 388 kts 266°
2026-04-21 22:40 39.71261 -92.97101 19690 ft 386 kts 266°
2026-04-21 22:40 39.70959 -93.00562 19356 ft 384 kts 266°
2026-04-21 22:40 39.70658 -93.04004 19027 ft 382 kts 266°
2026-04-21 22:40 39.70360 -93.07419 18683 ft 381 kts 266°
2026-04-21 22:41 39.70060 -93.10830 18362 ft 379 kts 267°
2026-04-21 22:41 39.69762 -93.14226 18003 ft 378 kts 267°
2026-04-21 22:41 39.69463 -93.17608 17631 ft 375 kts 266°
2026-04-21 22:41 39.69167 -93.20941 17258 ft 366 kts 266°
2026-04-21 22:42 39.68878 -93.24163 16997 ft 353 kts 266°
2026-04-21 22:42 39.68598 -93.27284 16732 ft 345 kts 266°
2026-04-21 22:42 39.68323 -93.30360 16481 ft 341 kts 266°
2026-04-21 22:42 39.68050 -93.33407 16229 ft 338 kts 266°
2026-04-21 22:43 39.67779 -93.36430 15971 ft 336 kts 266°
2026-04-21 22:43 39.67509 -93.39433 15728 ft 334 kts 266°
2026-04-21 22:43 39.67239 -93.42419 15482 ft 332 kts 266°
2026-04-21 22:43 39.66970 -93.45385 15239 ft 330 kts 266°
2026-04-21 22:44 39.66702 -93.48335 14993 ft 329 kts 266°
2026-04-21 22:44 39.66433 -93.51279 14754 ft 328 kts 266°
2026-04-21 22:44 39.66164 -93.54213 14519 ft 326 kts 266°
2026-04-21 22:44 39.65896 -93.57134 14283 ft 326 kts 266°
2026-04-21 22:45 39.65628 -93.60042 14046 ft 324 kts 266°
2026-04-21 22:45 39.65364 -93.62908 13822 ft 324 kts 265°
2026-04-21 22:45 39.65092 -93.65841 13558 ft 323 kts 265°
2026-04-21 22:45 39.64824 -93.68731 13298 ft 320 kts 265°
2026-04-21 22:46 39.64560 -93.71552 13024 ft 309 kts 265°
2026-04-21 22:46 39.64305 -93.74271 12759 ft 300 kts 265°
2026-04-21 22:46 39.64057 -93.76928 12404 ft 294 kts 265°
2026-04-21 22:46 39.63816 -93.79506 12029 ft 290 kts 265°
2026-04-21 22:47 39.63574 -93.82084 11646 ft 286 kts 266°
2026-04-21 22:47 39.63329 -93.84678 11274 ft 286 kts 265°
2026-04-21 22:47 39.63071 -93.87189 10929 ft 283 kts 261°
2026-04-21 22:47 39.62396 -93.89592 10576 ft 285 kts 248°
2026-04-21 22:48 39.61538 -93.91917 10223 ft 285 kts 247°
2026-04-21 22:48 39.60675 -93.94212 9875 ft 282 kts 248°
2026-04-21 22:48 39.59809 -93.96530 9506 ft 280 kts 247°
2026-04-21 22:48 39.58987 -93.98743 9161 ft 270 kts 248°
2026-04-21 22:49 39.58182 -94.00928 8761 ft 261 kts 247°
2026-04-21 22:49 39.57417 -94.03012 8384 ft 252 kts 248°
2026-04-21 22:49 39.56689 -94.05004 8011 ft 244 kts 248°
2026-04-21 22:49 39.55972 -94.06968 7630 ft 238 kts 248°
2026-04-21 22:50 39.55272 -94.08883 7277 ft 234 kts 248°
2026-04-21 22:50 39.54581 -94.10770 7076 ft 226 kts 248°
2026-04-21 22:50 39.53902 -94.12626 7041 ft 232 kts 248°
2026-04-21 22:50 39.53213 -94.14513 7035 ft 232 kts 248°
2026-04-21 22:51 39.52533 -94.16394 7023 ft 230 kts 249°
2026-04-21 22:51 39.51858 -94.18255 7023 ft 227 kts 248°
2026-04-21 22:51 39.51189 -94.20122 7023 ft 229 kts 248°
2026-04-21 22:51 39.50519 -94.21999 7029 ft 230 kts 248°
2026-04-21 22:52 39.49850 -94.23872 6930 ft 230 kts 248°
2026-04-21 22:52 39.49170 -94.25821 6433 ft 241 kts 248°
2026-04-21 22:52 39.48491 -94.27798 5946 ft 239 kts 248°
2026-04-21 22:52 39.47840 -94.29771 5450 ft 237 kts 248°
2026-04-21 22:53 39.47219 -94.31722 5130 ft 231 kts 248°
2026-04-21 22:53 39.46624 -94.33638 5039 ft 226 kts 248°
2026-04-21 22:53 39.46195 -94.35561 4909 ft 223 kts 265°
2026-04-21 22:53 39.46258 -94.37576 4822 ft 226 kts 271°
2026-04-21 22:54 39.46375 -94.39618 4727 ft 229 kts 271°
2026-04-21 22:54 39.46501 -94.41676 4640 ft 229 kts 271°
2026-04-21 22:54 39.46631 -94.43733 4539 ft 230 kts 271°
2026-04-21 22:54 39.46763 -94.45770 4416 ft 221 kts 271°
2026-04-21 22:55 39.46925 -94.47675 4293 ft 207 kts 276°
2026-04-21 22:55 39.47207 -94.49443 4170 ft 194 kts 277°
2026-04-21 22:55 39.47481 -94.51090 4051 ft 180 kts 277°
2026-04-21 22:55 39.47743 -94.52661 3974 ft 179 kts 277°
2026-04-21 22:56 39.48017 -94.54229 3875 ft 178 kts 277°
2026-04-21 22:56 39.48307 -94.55784 3772 ft 177 kts 277°
2026-04-21 22:56 39.48601 -94.57334 3662 ft 177 kts 277°
2026-04-21 22:56 39.48885 -94.58884 3565 ft 178 kts 275°
2026-04-21 22:57 39.49131 -94.60475 3492 ft 183 kts 275°
2026-04-21 22:57 39.49375 -94.62102 3398 ft 184 kts 274°
2026-04-21 22:57 39.49619 -94.63727 3306 ft 183 kts 274°
2026-04-21 22:57 39.49724 -94.65338 3152 ft 176 kts 253°
2026-04-21 22:58 39.49074 -94.66578 3178 ft 167 kts 211°
2026-04-21 22:58 39.48008 -94.67171 3318 ft 167 kts 202°
2026-04-21 22:58 39.46912 -94.67643 3407 ft 166 kts 197°
2026-04-21 22:58 39.45778 -94.68044 3563 ft 173 kts 196°
2026-04-21 22:59 39.44608 -94.68378 3685 ft 171 kts 196°
2026-04-21 22:59 39.43447 -94.68704 3720 ft 170 kts 195°
2026-04-21 22:59 39.42280 -94.69052 3544 ft 170 kts 197°
2026-04-21 22:59 39.41143 -94.69417 3383 ft 168 kts 198°
2026-04-21 23:00 39.40013 -94.69825 3211 ft 160 kts 199°
2026-04-21 23:00 39.38993 -94.70178 3113 ft 144 kts 196°
2026-04-21 23:00 39.38082 -94.70430 2906 ft 124 kts 196°
2026-04-21 23:00 39.37253 -94.70647 2514 ft 120 kts 194°
2026-04-21 23:01 39.36446 -94.70839 2179 ft 116 kts 196°
2026-04-21 23:01 39.35598 -94.71083 2014 ft 146 kts 196°
2026-04-21 23:01 39.34557 -94.71416 1820 ft 147 kts 194°
2026-04-21 23:01 39.33591 -94.71692 1379 ft 139 kts 195°
2026-04-21 23:02 39.32700 -94.71948 1116 ft 120 kts 194°
2026-04-21 23:02 39.31942 -94.72171 1001 ft 103 kts 194°
2026-04-21 23:02 39.31327 -94.72348 1003 ft 80 kts 192°
2026-04-21 23:02 39.30949 -94.72452 1006 ft 29 kts 188°
2026-04-21 23:03 39.30786 -94.72389 1008 ft 0 kts 143°
2026-04-21 23:04 39.30786 -94.72388 1008 ft 0 kts 143°
2026-04-21 23:05 39.30781 -94.72383 1008 ft 2 kts 143°
2026-04-21 23:05 39.30764 -94.72367 1009 ft 4 kts 143°
2026-04-21 23:05 39.30742 -94.72353 1009 ft 3 kts 169°
2026-04-21 23:05 39.30719 -94.72356 1009 ft 3 kts 191°
2026-04-21 23:06 39.30697 -94.72362 1009 ft 3 kts 191°
2026-04-21 23:06 39.30690 -94.72363 1009 ft 0 kts 191°
2026-04-21 23:06 39.30689 -94.72364 1009 ft 1 kts 191°
2026-04-21 23:06 39.30679 -94.72366 1010 ft 3 kts 191°
2026-04-21 23:07 39.30644 -94.72377 1010 ft 7 kts 193°
2026-04-21 23:07 39.30592 -94.72393 1010 ft 8 kts 193°
2026-04-21 23:07 39.30537 -94.72411 1011 ft 8 kts 193°
2026-04-21 23:07 39.30484 -94.72427 1012 ft 8 kts 194°
2026-04-21 23:08 39.30432 -94.72441 1013 ft 8 kts 191°
2026-04-21 23:08 39.30381 -94.72454 1013 ft 7 kts 191°
2026-04-21 23:08 39.30333 -94.72468 1014 ft 7 kts 194°
2026-04-21 23:08 39.30287 -94.72456 1015 ft 7 kts 142°
2026-04-21 23:09 39.30264 -94.72404 1015 ft 7 kts 133°
2026-04-21 23:09 39.30220 -94.72389 1015 ft 7 kts 159°
2026-04-21 23:09 39.30198 -94.72339 1015 ft 7 kts 108°
2026-04-21 23:09 39.30198 -94.72283 1015 ft 6 kts 64°
2026-04-21 23:10 39.30238 -94.72257 1014 ft 7 kts 15°
2026-04-21 23:10 39.30274 -94.72246 1014 ft 5 kts
2026-04-21 23:10 39.30275 -94.72246 1014 ft 0 kts